Location: Gensac
(43.2177°N, 1.1313°E)
Time: 10:31:38
(UTC+00:00)

IGS 5A - Pass Details

Date: 17 March 2026
Orbit: 551 x 554 km, 97.4° (Epoch: 8 January)

Event Time Altitude Azimuth Distance (km) Brightness Sun altitude
Rises 05:21:19 0° 17° (NNE) 2,735 7.2 -8.7°
Reaches altitude 10° 05:23:30 10° 22° (NNE) 1,836 6.4 -8.3°
Maximum altitude 05:27:24 52° 100° (E) 688 4.3 -7.6°
Drops below altitude 10° 05:31:15 10° 177° (S) 1,821 6.0 -6.9°
Sets 05:33:24 0° 182° (S) 2,710 6.8 -6.5°
